Погода в Варзуге

Поиск расширенной информации на нашем сайте:

Полезная информация:

Новости сайта



02.01.2020
Опубликован Долгосрочный прогноз погоды по городам России и ближнего зарубежья на январь 2020 года.
Карты: Прогноз на январь и февраль 2020 года, Сравнение прогнозируемой аномалии приземной температуры воздуха на январь 2020 года по разным моделям.




Погода в Варзуге - сегодня

Время (UTC), дата Ветер
(°,м/с) 
Видим.   Явления Облачность Т
(°С)
Тd
(°С)
f(%) Тe
(°С)
Pmin
(гПа)
dP
(гПа)
Po
(мм)
O2
(г/м3)
Тmin Tmax R s Состояние
почвы
12 29.11.20 230 (ЮЗ) 8-11{13}  5000 м    н/о 
-0.8 -2.2 90 -5  1031.5  -0.5  773  313           
15 29.11.20 230 (ЮЗ) 8-11{12}  8000 м    н/о 
-0.4 -2.7 84 -5  1030.8  -0.7  773  312      0.5     
18 29.11.20 230 (ЮЗ) 9-10{12}  8000 м    10/0 кучево-дожд. 
[Cb cap]
+0 -2.8 81 -5  1029.9  -0.8  772  311    +0.2  0.3     
21 29.11.20 220 (ЮЗ) 10-12{13}  9000 м    н/о 
+0.5 -2.5 80 -4  1029.1  -0.8  772  311           
00 30.11.20 220 (ЮЗ) 10-12{13}  7000 м    н/о 
+0.3 -1.9 85 -4  1028.4  -0.7  771  311           
03 30.11.20 220 (ЮЗ) 10-12{13}  8000 м    н/о 
+0.2 -2 85 -5  1027.1  -1.3  770  310  -0.7    0.3     
06 30.11.20 210 (ЮЗ) 9-11{12}  9000 м    10/0 
[Sc]
-0.6 -3.1 83 -5  1026.3  -0.8  769  311  -0.8    0.0  сухой снег
10-40% 
09 30.11.20 220 (ЮЗ) 9-11{13}  9000 м    н/о 
-1 -2.7 88 -6  1025.7  -0.6  769  311           
12 30.11.20 210 (ЮЗ) 6-8{11}  7000 м    н/о 
+0.2 -1.1 91 -3  1023.8  -1.9  768  309           
15 30.11.20 190 (Ю) 9-10{11}  4500 м    н/о 
+1 -0.3 91 -3  1021.8  -2  766  308           
18 30.11.20 210 (ЮЗ) 10-12{13}  7000 м    10/0 
[Sc]
+1.9 +0.3 89 -3  1019.7  -2.1  764  306    +2       
21 30.11.20 210 (ЮЗ) 10-12{13}  7000 м    н/о 
+2.2 +0.5 88 -2  1017.9  -1.8  763  305           
00 01.12.20 200 (Ю) 10-11{12}  6000 м    н/о 
+2.2 +0.9 91 -2  1016.2  -1.7  762  304           
03 01.12.20 210 (ЮЗ) 8-9{12}  6000 м    н/о 
+2 +0.8 92 -2  1014.5  -1.7  761  304  +0.9    0.3     
06 01.12.20 230 (ЮЗ) 9-10{10}  5000 м    10/0 кучево-дожд. 
[Cb cap]
+1.1 +0.5 96 -3  1013.1  -1.4  760  305  +1       
09 01.12.20 220 (ЮЗ) 10-12{13}  8000 м    н/о 
+1.2 -0.4 89 -3  1013.5  0.4  760  305           
12 01.12.20 220 (ЮЗ) 12-14{15}  7000 м    н/о 
+0.7 -1.5 85 -5  1013.6  0.1  760  306           
15 01.12.20 220 (ЮЗ) 11-13{14}  7000 м    н/о 
+0 -2.1 86 -5  1014.4  0.8  761  307         
21 01.12.20 250 (З) 6-7{12}  10 км    н/о 
+0.1 -2.1 85 -3  1016.3  762  307           
00 02.12.20 340 (С) 2-2  14000 м    н/о 
-0.3 -2.3 86 -1  1018  1.7  763  308           
03 02.12.20 080 (В) 1-1  13000 м    н/о 
-0.7 -1.9 92 1019.3  1.3  764  309  -1.1         
06 02.12.20 360 (С) 1-2  13000 м    10/0 
[Sc]
-0.5 -1.5 93 1021  1.7  765  309  -1.1    0.0  сухой снег
10-40% 
09 02.12.20 260 (З) 6-7  12000 м    н/о 
+1.6 -0.3 87 -2  1022.2  1.2  766  307           
12 02.12.20 240 (ЮЗ) 9-11{11}  10 км    н/о 
+0.2 -2.1 85 -4  1022.3  0.1  766  309           
15 02.12.20 240 (ЮЗ) 8-10{11}  9000 м    н/о 
-1.2 -2.5 91 -6  1022.8  0.5  767  311      0.1     
Время (UTC), дата Ветер
(°,м/с) 
Видим.   Явления Облачность Т
(°С)
Тd
(°С)
f(%) Тe
(°С)
Pmin
(гПа)
dP
(гПа)
Po
(мм)
O2
(г/м3)
Тmin Tmax R s Состояние
почвы

Для получения пояснительной информации подведите курсор к названию столбца.

ПОГОДА в Варзуге - архив

Всё, что Вы хотите узнать о погоде в Варзуге - удобно и подробно!

Выберите нужную дату (начиная с 1 января 2019* года) и нажмите кнопку "Найти".
Будут отображены архивные сводки погоды по пункту Варзуга, начиная с указанной даты.


Отображать данные в формате CSV (для использования в таблицах Excel)


Внимание! Наш архив погоды предназначен исключительно для личного некоммерческого использования в познавательных целях. Если Вам необходимы официальные справки о состоянии погоды (для производственных, юридических, коммерческих и т.п. целей), обращайтесь в органы Росгидромета.

*Примечание: данная дата относится к архиву по метеостанциям СССР (Россия, СНГ, Балтия).
Архив по метеостанциям Зарубежной Европы и Азии (кроме Китая) хранится 10 дней, по другим регионам земного шара (Китай, Африка, Америка, Австралия, Океания) - 1 день.

Варзуга - район местоположения метеостанции


Название, широта, долгота, высота метеостанции:
Варзуга 66.4°ш. 36.6°д. 6 м над ур. моря [Российская Федерация]

Дополнительная информация

В oтличие oт бoльшинства пoгoдных сайтoв мы публикуем пoдрoбную метеoинфoрмацию в детальнoм прoфессиoнальнoм фoрмате.

Характеристики температуры и влажнoсти вoздуха измеряются на высoте 2 м в тени вдали oт зданий и деревьев.
Скoрoсть ветра измеряется на высoте 10 м (на урoвне рoста челoвека скoрoсть ветра ниже в 1.5-2 раза). Если метеoстанция нахoдится в гoрoде или в лесу, тo скoрoсть ветра занижена на 2-4 м/с пo сравнению с oткрытым местoм. Скoрoсть ветра над акватoриями крупных рек и oзёр, а также на вершинах хoлмoв на 2-5 м/с выше, чем в oбычных услoвиях.
Атмoсфернoе давление в разных тoчках местнoсти мoжет значительнo oтличаться oт давления на метеoстанции, в зависимoсти oт услoвий рельефа (при пoдъёме на 10 м давление пoнижается примернo на 1 мм рт.ст.).